Clarksville, TN

2:40 AM CDT on April 27, 2017 (GMT -0500)
Outlaw

Weather History for KCKV - October, 2012

Change the Weather History Date:

Wednesday, October 24, 2012

  Actual Average Record
Temperature  
Mean Temperature 66 °F 56 °F  
Max Temperature 81 °F 69 °F 86 °F (1963)
Min Temperature 51 °F 44 °F 20 °F (1981)
Degree Days  
Heating Degree Days 0 9  
Month to date heating degree days 160 146  
Since 1 July heating degree days 197 175  
Cooling Degree Days 1 1  
Month to date cooling degree days 11 30  
Year to date cooling degree days 1429  
Growing Degree Days 16 (Base 50)    
Moisture  
Dew Point 53 °F    
Average Humidity 66    
Maximum Humidity 89    
Minimum Humidity 42    
Precipitation  
Precipitation 0.00 in 0.13 in 1.34 in (2008)
Month to date precipitation 3.37 3.13  
Year to date precipitation 39.79  
Sea Level Pressure  
Sea Level Pressure 30.06 in    
Wind  
Wind Speed 5 mph (SSE)    
Max Wind Speed 14 mph    
Max Gust Speed 18 mph    
Visibility 10 miles    
Events      
T = Trace of Precipitation, MM = Missing Value Source: NWS Daily Summary

Daily Weather History Graph

Daily Weather History Graph

Search for Another Location

Airport or City:

Trip Planner

Search our weather history database for the weather conditions in past years. The results will help you decide how hot, cold, wet, or windy it might be!

Date:

Astronomy

Oct. 24, 2012 Rise Set
Actual Time 7:05 AM CDT 6:01 PM CDT
Civil Twilight 6:39 AM CDT 6:27 PM CDT
Nautical Twilight 6:09 AM CDT 6:57 PM CDT
Astronomical Twilight 5:39 AM CDT 7:27 PM CDT
Moon 3:10 PM CDT (10/24) 2:08 AM CDT (10/24)
Length of Visible Light 11h 48m
Length of Day
10h 55m
Waxing Gibbous, 76% of the Moon is Illuminated
Oct 24
Waxing Gibbous
Oct 29
Full
Nov 6
Last Quarter
Nov 13
New
Nov 20
First Quarter

Hourly Weather History & Observations

Time (CDT) Temp. Heat Index Dew Point Humidity Pressure Visibility Wind Dir Wind Speed Gust Speed Precip Events Conditions
12:52 AM 62.1 °F - 50.0 °F 65% 30.06 in 10.0 mi South 3.5 mph - N/A   Clear
1:52 AM 55.9 °F - 48.9 °F 77% 30.07 in 10.0 mi SSE 5.8 mph - N/A   Clear
2:52 AM 55.0 °F - 48.9 °F 80% 30.07 in 10.0 mi Calm Calm - N/A   Clear
3:52 AM 55.0 °F - 50.0 °F 83% 30.07 in 10.0 mi SE 3.5 mph - N/A   Clear
4:52 AM 53.1 °F - 48.9 °F 86% 30.09 in 9.0 mi SE 3.5 mph - N/A   Clear
5:52 AM 52.0 °F - 48.9 °F 89% 30.10 in 10.0 mi SE 4.6 mph - N/A   Clear
6:52 AM 52.0 °F - 48.9 °F 89% 30.12 in 10.0 mi SE 4.6 mph - N/A   Clear
7:52 AM 55.0 °F - 51.1 °F 86% 30.12 in 10.0 mi SE 3.5 mph - N/A   Clear
8:52 AM 61.0 °F - 53.1 °F 75% 30.12 in 10.0 mi SE 4.6 mph - N/A   Clear
11:52 AM 77.0 °F - 55.9 °F 48% 30.10 in 10.0 mi SW 9.2 mph - N/A   Clear
12:52 PM 78.1 °F - 57.0 °F 48% 30.07 in 10.0 mi SSW 5.8 mph - N/A   Clear
1:52 PM 79.0 °F - 55.9 °F 45% 30.04 in 10.0 mi Variable 6.9 mph - N/A   Clear
2:52 PM 80.1 °F 80.2 °F 55.9 °F 43% 30.03 in 10.0 mi SSW 8.1 mph - N/A   Clear
3:52 PM 81.0 °F 80.8 °F 55.9 °F 42% 30.01 in 10.0 mi South 8.1 mph 18.4 mph N/A   Clear
4:52 PM 79.0 °F - 54.0 °F 42% 30.01 in 10.0 mi SSW 8.1 mph - N/A   Clear
5:52 PM 75.9 °F - 53.1 °F 45% 30.01 in 10.0 mi Calm Calm - N/A   Clear
6:52 PM 71.1 °F - 53.1 °F 53% 30.02 in 10.0 mi South 3.5 mph - N/A   Clear
8:52 PM 64.0 °F - 54.0 °F 70% 30.03 in 10.0 mi SSE 3.5 mph - N/A   Clear
9:52 PM 61.0 °F - 53.1 °F 75% 30.03 in 10.0 mi SE 5.8 mph - N/A   Clear
10:52 PM 62.1 °F - 53.1 °F 72% 30.03 in 10.0 mi South 3.5 mph - N/A   Clear
11:52 PM 60.1 °F - 53.1 °F 78% 30.02 in 10.0 mi Calm Calm - N/A   Clear